Location: ?
(35.6144°N, 139.6873°E)
Time: 20:28:27
(UTC+00:00)

Daily predictions for brighter satellites

Satellite Brightness Start Highest point End
(mag) Time Altitude Azimuth Time Altitude Azimuth Time Altitude Azimuth
CZ-3A R/B 4.4 18:18:43 48° S 18:18:43 48° S 18:27:48 10° ESE
Atlas Centaur 2 4.1 18:33:01 32° SSE 18:33:01 32° SSE 18:39:47 10° E
H-2A R/B 3.9 18:37:35 60° S 18:38:30 62° SSE 19:44:49 10° E
H-2A R/B 3.9 18:37:35 60° S 18:38:30 62° SSE 19:44:50 10° E
H-2A R/B 3.9 18:37:36 60° S 18:38:30 62° SSE 19:44:49 10° E
H-2A R/B 3.9 18:37:35 60° S 18:38:31 62° SSE 19:44:49 10° E
Cosmos 1844 Rocket 4.5 18:44:15 25° SE 18:44:15 25° SE 18:46:40 10° SE
ATLAS 3B CENTAUR R/B 4.3 18:51:00 34° S 18:51:01 34° S 19:03:18 10° SE
Cosmos 2333 Rocket 3.8 19:01:44 25° NNE 19:01:44 25° NNE 19:04:00 10° NNE
Cosmos 2219 Rocket 3.6 19:04:27 30° NNE 19:04:27 30° NNE 19:07:10 10° NNE
ATLAS 2A CENTAUR R/B 4.1 19:08:18 27° SSE 19:08:18 27° SSE 19:15:16 10° ESE
CZ-2C R/B 3.5 19:16:35 22° SE 19:16:35 22° SE 19:18:43 10° E
COSMOS 2428 3.1 19:19:25 56° NNE 19:19:25 56° NNE 19:23:53 10° NNE
SJ 16-02 2.7 19:20:31 36° ESE 19:20:31 36° ESE 19:23:23 10° SSE
CZ-4B R/B 4.2 19:18:05 10° SE 19:19:13 17° ESE 19:19:13 17° ESE
CZ-3 Stage 3 3.4 19:23:18 21° SE 19:23:18 21° SE 19:24:22 10° ESE
Meteor 2-5 Rocket 4.3 19:25:02 46° S 19:25:02 46° S 19:28:59 10° S
USA 267 4.4 19:18:23 10° S 19:21:54 27° SSW 19:21:54 27° SSW
IRIDIUM 104 4.5 19:26:58 10° S 19:32:09 72° E 19:37:21 10° N
ATLAS 5 CENTAUR R/B 4.3 19:31:31 11° NE 19:32:16 12° ENE 19:33:54 10° E
IRIDIUM 114 4.2 19:36:03 10° S 19:41:15 88° E 19:46:30 10° N
H-2A R/B 4.2 19:44:57 10° NNE 19:48:24 36° E 19:51:50 10° SSE
IRIDIUM 103 4.1 19:45:13 10° S 19:50:24 75° W 19:55:38 10° N
BREEZE-M DEB (TANK) 2.5 19:51:44 57° E 19:51:44 57° E 19:55:57 10° NE
OAO 1 Rocket 4.4 19:52:54 54° WSW 19:54:02 75° S 19:59:22 10° E
ADEOS 3.8 19:49:27 10° N 20:01:26 - SSW 19:53:41 48° NW
Meteor 2-10 4.0 19:49:02 10° SSW 19:54:43 76° W 20:00:16 10° N
Cosmos 540 Rocket 3.9 19:50:17 10° S 19:55:18 62° ESE 20:00:22 10° NNE
Meteor 1-24 Rocket 3.7 19:56:19 50° WNW 19:56:49 52° W 20:02:19 10° S
Cosmos 1455 Rocket 2.9 19:53:44 10° S 19:58:07 85° W 20:02:29 10° N
SL-4 R/B 3.9 19:56:04 11° S 19:58:59 26° SE 20:02:17 10° ENE
MOS 1 Rocket 4.0 19:54:59 10° SSE 20:00:00 56° ENE 20:04:45 10° N
SKYMED 2 3.5 19:57:33 10° SSE 20:01:53 85° ENE 20:04:48 21° N
Cosmos 990 Rocket 4.0 19:58:51 20° NNW 20:02:31 78° ENE 20:07:38 10° SSE
Cosmos 1844 4.2 20:03:21 39° WSW 20:03:21 39° WSW 20:08:39 10° S
GPS 2-04 Rocket1 2.9 20:04:06 54° SW 20:04:30 57° SSW 20:08:35 10° ESE
IRIDIUM 106 4.4 20:03:43 10° SSW 20:08:44 48° W 20:13:48 10° N
FALCON 9 DEB 3.7 20:11:56 42° N 20:11:56 42° N 20:14:35 10° NE
NOSS 0 Rocket 3.8 20:05:57 10° SSW 20:12:07 72° WNW 20:18:18 10° NNE
Cosmos 1513 Rocket 4.4 20:06:12 10° SSW 20:12:29 65° W 20:18:43 10° N
SL-24 R/B 4.4 20:10:50 10° S 20:13:44 37° SW 20:13:44 37° SW
ATLAS CENTAUR R/B 3.6 20:11:31 10° SSE 20:14:33 23° ESE 20:17:32 10° ENE
OAO 2 Rocket 3.2 20:13:45 38° W 20:15:37 84° S 20:20:33 10° E
YAOGAN 6 3.4 20:12:19 10° NNE 20:15:57 53° E 20:19:33 10° S
deb Chang Zheng 4 3.6 20:15:00 10° N 20:19:05 48° WNW 20:23:08 10° SSW
Okean O Rocket 4.4 20:17:39 10° NE 20:20:52 20° E 20:24:03 10° SE
Cosmos 1763 Rocket 4.0 20:19:46 29° WSW 20:21:25 36° WNW 20:26:12 10° N
Cosmos 1953 2.1 20:17:27 10° S 20:21:26 77° W 20:25:24 10° N
Atlas Centaur 2 3.5 20:15:38 17° WSW 20:21:47 56° S 20:30:06 10° E
Cosmos 1464 Rocket 4.0 20:18:26 10° SSW 20:24:24 54° W 20:30:24 10° N
Cosmos 1844 Rocket 4.2 20:25:59 18° WSW 20:25:59 18° WSW 20:28:29 10° SW
Cosmos 841 Rocket 3.3 20:21:52 10° SSW 20:26:58 69° WNW 20:32:06 10° NNE
SL-16 R/B 3.8 20:21:53 10° S 20:27:01 37° ESE 20:32:10 10° NE
ERS-2 2.0 20:24:23 10° S 20:27:58 61° WSW 20:30:34 18° NNW
Meteor 1-21 Rocket 4.4 20:22:32 10° N 20:28:17 79° E 20:34:06 10° SSE
Cosmos 1908 3.1 20:27:02 10° S 20:30:50 87° E 20:34:39 10° N
USA 307 4.3 20:26:55 10° SSW 20:30:51 40° SE 20:34:49 10° ENE
Cosmos 1898 Rocket 3.4 20:26:27 11° NNW 20:31:19 65° WSW 20:36:25 10° S
Meteor PRIRODA 4.0 20:29:20 10° N 20:32:42 37° WNW 20:36:03 10° SW
PSLV R/B 3.8 20:29:21 10° S 20:33:25 79° WSW 20:37:34 10° NNW
Cosmos 2278 Rocket 2.3 20:28:26 10° NNW 20:34:08 78° ENE 20:39:47 10° SSE
Cosmos 1461 4.1 20:33:17 25° WNW 20:34:18 28° NW 20:38:23 10° N
Cosmos 1570 Rocket 3.9 20:32:58 10° SSW 20:38:09 67° WNW 20:43:22 10° NNE
USA 308 3.9 20:35:27 10° SSW 20:39:31 49° SE 20:43:36 10° NE
Cosmos 2237 Rocket 2.3 20:34:17 10° SW 20:39:47 54° WNW 20:45:22 10° NNE
Cosmos 1892 Rocket 4.3 20:37:31 18° NW 20:39:55 30° W 20:43:45 10° SSW
USA 305 3.7 20:36:11 10° SSW 20:40:19 53° SE 20:44:27 10° NE
CZ-2C R/B 3.8 20:37:04 10° SE 20:41:56 42° ENE 20:46:53 10° N
Cosmos 2333 Rocket 3.8 20:43:48 14° NW 20:43:48 14° NW 20:46:12 10° NNW
Cosmos 2219 Rocket 3.7 20:46:15 15° NW 20:46:15 15° NW 20:49:12 10° NNW
USA 276 3.5 20:46:47 20° WSW 20:47:50 24° SW 20:50:26 10° S
Cosmos 921 Rocket 4.5 20:48:47 17° NW 20:48:47 17° NW 20:51:00 10° NNW
COSMO-SKYMED 1 3.6 20:46:30 10° SSW 20:50:06 25° W 20:53:27 11° NW
USA 306 3.2 20:47:52 10° SW 20:52:05 69° SE 20:56:19 10° NE
CZ-4B R/B 3.4 20:51:21 10° SW 20:52:20 13° WSW 20:52:20 13° WSW
SWAS 4.3 20:49:41 10° SSW 20:53:54 74° WNW 20:58:11 10° NNE
CZ-2C R/B 1.5 20:50:55 11° WSW 20:54:45 64° S 20:58:35 10° E
NOSS 3-2 (A) 3.4 20:50:46 10° SSW 20:56:12 81° ESE 21:02:21 10° NNE
SJ 16-02 3.3 20:57:34 11° W 20:57:34 11° W 20:58:29 10° WSW
Cosmos 2208 Rocket 4.2 20:52:12 10° SSW 20:57:32 55° WNW 21:02:53 10° N
Cosmos 1689 Rocket 2.9 20:55:12 10° SSW 20:57:49 30° W 21:00:26 10° NW
Cosmos 1092 Rocket 4.1 20:52:00 10° N 20:58:11 86° E 21:04:22 10° S
DMSP B5D1-3 4.5 20:53:30 10° S 20:58:35 69° WSW 21:03:40 10° NNW
BREEZE-M (TANK) 3.5 20:57:15 10° NNW 20:58:42 17° NNE 21:00:11 10° ENE
GEOS 3 Rocket 3.9 20:54:33 10° SSE 20:59:45 55° WSW 21:05:02 10° NW
Cosmos 2034 Rocket 4.5 20:55:43 10° SW 21:01:36 39° WNW 21:07:33 10° N
Chandra Rocket (1) 3.1 20:58:56 10° WSW 21:02:00 23° S 21:04:07 10° SE
COSMOS 2428 4.3 21:01:33 12° WNW 21:03:09 13° NW 21:05:50 10° NNW
Cosmos 1814 Rocket 4.3 20:58:46 10° SW 21:03:36 42° WNW 21:08:28 10° N
CZ-4B R/B 4.3 21:01:53 10° NW 21:03:51 14° WNW 21:05:50 10° WSW
NOSS 3-2 (C) 4.2 21:00:16 10° S 21:05:31 53° ESE 21:11:22 10° NE
Cosmos 1937 Rocket 3.9 21:01:35 10° NNW 21:06:31 41° WSW 21:11:23 10° S
Cosmos 1703 3.4 21:05:14 10° NNW 21:09:00 51° W 21:12:48 10° S
Cosmos 1340 2.7 21:05:40 10° NNW 21:09:22 58° W 21:13:02 10° S
Cosmos 372 Rocket 4.0 21:04:35 10° NNW 21:09:51 81° WSW 21:15:04 10° SSE
CORIOLIS 4.3 21:05:09 10° NNE 21:10:31 80° ESE 21:15:51 10° S
Envisat 3.5 21:06:04 10° N 21:10:43 37° WNW 21:15:21 10° SW
Lacrosse 4 Rocket 1.5 21:07:58 10° SW 21:12:04 57° WNW 21:16:18 10° NNE
MOS 1-B 4.3 21:06:27 10° N 21:12:11 67° WNW 21:17:53 10° SSW
NOAA 6 4.2 21:09:12 10° N 21:14:12 49° WNW 21:19:10 10° SW
Cosmos 1346 Rocket 3.6 21:10:38 10° N 21:14:32 54° E 21:18:25 10° SSE
Nadezhda 4 Rocket 4.4 21:09:47 10° NNW 21:15:22 38° W 21:20:56 10° SSW
NOAA 11 4.3 21:11:10 10° NNE 21:16:39 85° ESE 21:22:05 10° SSW
Cosmos 1634 Rocket 4.0 21:12:01 10° SSW 21:18:07 67° W 21:24:16 10° N
Lacrosse 5 rocket 2.3 21:15:13 10° NNW 21:18:47 37° NE 21:22:13 10° ESE
Cosmos 1606 Rocket 3.6 21:17:55 10° S 21:22:13 85° E 21:26:33 10° N
Cosmos 1939 Rocket 3.4 21:18:33 10° NNE 21:22:26 64° E 21:26:16 10° S
